Regional Weather Roundup
Issued by NWS

Home | Current Version | Previous Version | Graphics & Text | Print | Product List | Glossary Off
Versions: 1 2 3 4 5 6 7 8 9 10 11 12 13 14 15 16 17 18 19 20 21 22 23 24 25 26 27 28 29 30 31 32 33 34 35 36 37 38 39 40 41 42 43 44 45 46 47 48 49 50

000
ASUS43 KMKX 021821
RWRWI

WISCONSIN REGIONAL WEATHER ROUNDUP
NATIONAL WEATHER SERVICE MILWAUKEE/SULLIVAN WI
1200 PM CST FRI DEC 02 2016

NOTE: "FAIR" INDICATES FEW OR NO CLOUDS BELOW 12,000 FEET WITH NO
SIGNIFICANT WEATHER AND/OR OBSTRUCTIONS TO VISIBILITY.

WIZ001-002-006>008-014>016-023>028-021900-
NORTHWEST WISCONSIN

CITY           SKY/WX    TMP DP  RH WIND       PRES   REMARKS
SUPERIOR ARPT  CLOUDY    30  23  74 W7        30.22R WCI  23
6HR MIN TEMP:  29; 6HR MAX TEMP:  30;

ASHLAND        CLOUDY    31  25  78 W13       30.19R WCI  21
6HR MIN TEMP:  29; 6HR MAX TEMP:  31;

HAYWARD        CLOUDY    29  22  75 VRB6      30.19R WCI  23
6HR MIN TEMP:  29; 6HR MAX TEMP:  30;

SIREN          CLOUDY    30  23  74 N6        30.21S WCI  24
6HR MIN TEMP:  30; 6HR MAX TEMP:  30;

CUMBERLAND     CLOUDY    30  23  74 NW7       30.19S WCI  23
RICE LAKE      CLOUDY    31  24  74 NW5       30.21S WCI  26
6HR MIN TEMP:  29; 6HR MAX TEMP:  31;

CHETEK         CLOUDY    31  25  77 N5        30.20S WCI  26
6HR MIN TEMP:  29; 6HR MAX TEMP:  31;

LADYSMITH      CLOUDY    31  25  76 W9        30.19S WCI  23
6HR MIN TEMP:  30; 6HR MAX TEMP:  31;

EAU CLAIRE     CLOUDY    32  23  69 W9        30.20S WCI  24
6HR MIN TEMP:  29; 6HR MAX TEMP:  32;

MENOMONIE      CLOUDY    33  25  72 W8        30.21S WCI  26
6HR MIN TEMP:  31; 6HR MAX TEMP:  33;

NEW RICHMOND   CLOUDY    31  26  78 NW7       30.22R WCI  25
6HR MIN TEMP:  29; 6HR MAX TEMP:  32;

OSCEOLA        NOT AVBL
$$

WIZ003>005-009-010-017-018-021900-
NORTH CENTRAL WISCONSIN

CITY           SKY/WX    TMP DP  RH WIND       PRES   REMARKS
MANITOWISH WTR CLOUDY    28  28  99 NW7       30.12S WCI  21
6HR MIN TEMP:  26; 6HR MAX TEMP:  28;

ARBOR VITAE    CLOUDY    32  28  84 NW6       30.12S WCI  26
6HR MIN TEMP:  29; 6HR MAX TEMP:  32;

WOODRUFF       CLOUDY    32  28  84 NW6       30.12S WCI  26
6HR MIN TEMP:  29; 6HR MAX TEMP:  32;

RHINELANDER    CLOUDY    30  26  85 NW7       30.13R WCI  23
6HR MIN TEMP:  28; 6HR MAX TEMP:  30;

EAGLE RIVER    CLOUDY    29  27  93 NW7       30.11R FOG     WCI  22
6HR MIN TEMP:  27; 6HR MAX TEMP:  29;

LAND O LAKES   CLOUDY    30  28  93 NW3       30.11S
6HR MIN TEMP:  28; 6HR MAX TEMP:  30;

PHILLIPS       CLOUDY    29  24  82 NW3       30.14S
6HR MIN TEMP:  27; 6HR MAX TEMP:  29;

TOMAHAWK       CLOUDY    30  24  75 NW7       30.14R WCI  24
6HR MIN TEMP:  27; 6HR MAX TEMP:  31;

MEDFORD        CLOUDY    29  23  77 NW6       30.15S WCI  23
6HR MIN TEMP:  27; 6HR MAX TEMP:  29;

MERRILL        CLOUDY    31  25  76 W6        30.15S WCI  26
6HR MIN TEMP:  28; 6HR MAX TEMP:  31;

$$

WIZ029-030-035-036-043>047-021900-
CENTRAL WISCONSIN

CITY           SKY/WX    TMP DP  RH WIND       PRES   REMARKS
WAUSAU         CLOUDY    31  24  75 W9        30.14R WCI  23
6HR MIN TEMP:  28; 6HR MAX TEMP:  32;

MOSINEE        CLOUDY    30  25  80 W9        30.16S WCI  22
MARSHFIELD     CLOUDY    30  22  72 NW12      30.16R WCI  20
6HR MIN TEMP:  29; 6HR MAX TEMP:  31;

STEVENS POINT  CLOUDY    30  22  73 NW5       30.17R WCI  25
6HR MIN TEMP:  28; 6HR MAX TEMP:  30;

WAUPACA        CLOUDY    35  24  66 CALM      30.17S
6HR MIN TEMP:  33; 6HR MAX TEMP:  35;

WAUTOMA        CLOUDY    33  23  66 NW10      30.18S WCI  25
6HR MIN TEMP:  31; 6HR MAX TEMP:  33;

WISC RAPIDS    CLOUDY    32  23  69 NW7       30.18R WCI  26
6HR MIN TEMP:  30; 6HR MAX TEMP:  32;

CAMP DOUGLAS   CLOUDY    32  23  69 NW9       30.19R WCI  24
$$

WIZ011>013-019>022-031-037>040-048>050-021900-
NORTHEAST WISCONSIN

CITY           SKY/WX    TMP DP  RH WIND       PRES   REMARKS
ANTIGO         CLOUDY    30  25  80 W10       30.13R WCI  21
6HR MIN TEMP:  27; 6HR MAX TEMP:  31;

SHAWANO        CLOUDY    37  27  67 NW7       30.14S WCI  31
6HR MIN TEMP:  33; 6HR MAX TEMP:  37;

OCONTO         CLOUDY    35  26  68 NW6       30.13R WCI  30
6HR MIN TEMP:  32; 6HR MAX TEMP:  35;

STURGEON BAY   CLOUDY    35  26  69 NW9       30.12R WCI  28
6HR MIN TEMP:  31; 6HR MAX TEMP:  35;

GREEN BAY      CLOUDY    36  27  69 W10       30.14S WCI  28
6HR MIN TEMP:  34; 6HR MAX TEMP:  36;

MANITOWOC      CLOUDY    35  25  66 NW9       30.15R WCI  28
6HR MIN TEMP:  32; 6HR MAX TEMP:  35;

APPLETON       CLOUDY    34  23  64 W9        30.13S WCI  26
CLINTONVILLE   CLOUDY    34  25  69 NW13      30.15R WCI  25
OSHKOSH        CLOUDY    33  24  69 NW12      30.16R WCI  24
6HR MIN TEMP:  32; 6HR MAX TEMP:  33;

$$

WIZ032>034-041-042-053>061-021900-
SOUTHWEST WISCONSIN

CITY           SKY/WX    TMP DP  RH WIND       PRES   REMARKS
LA CROSSE      CLOUDY    35  23  61 NW10      30.22S WCI  27
6HR MIN TEMP:  33; 6HR MAX TEMP:  35;

SPARTA         CLOUDY    32  23  70 NW8       30.22S WCI  25
6HR MIN TEMP:  31; 6HR MAX TEMP:  32;

VIROQUA        CLOUDY    31  24  74 NW12      30.19S WCI  21
6HR MIN TEMP:  30; 6HR MAX TEMP:  32;

BOSCOBEL       CLOUDY    36  24  62 NW9       30.22R WCI  29
6HR MIN TEMP:  35; 6HR MAX TEMP:  37;

PRAIRIE DU CHI CLOUDY    34  22  62 NW8G16    30.23R WCI  27
6HR MIN TEMP:  34; 6HR MAX TEMP:  35;

PLATTEVILLE    CLOUDY    34  28  77 NW13      30.20R WCI  25
6HR MIN TEMP:  33; 6HR MAX TEMP:  35;

$$

WIZ056-057-062-063-064-067-068-021900-
SOUTH CENTRAL WISCONSIN

CITY           SKY/WX    TMP DP  RH WIND       PRES   REMARKS
REEDSBURG      CLOUDY    32  23  69 NW8       30.19R WCI  25
6HR MIN TEMP:  31; 6HR MAX TEMP:  32;

BARABOO/DELLS  CLOUDY    32  22  67 NW9       30.18R WCI  24
6HR MIN TEMP:  31; 6HR MAX TEMP:  32;

LONE ROCK      CLOUDY    34  23  64 NW8       30.21R WCI  27
6HR MIN TEMP:  34; 6HR MAX TEMP:  36;

MINERAL POINT  CLOUDY    34  27  75 W6        30.18R WCI  29
MADISON        CLOUDY    33  23  66 N10       30.18R WCI  25
6HR MIN TEMP:  32; 6HR MAX TEMP:  34;

MIDDLETON      CLOUDY    34  26  71 NW10      30.19R WCI  26
6HR MIN TEMP:  34; 6HR MAX TEMP:  35;

WATERTOWN      CLOUDY    33  25  71 NW7       30.16S WCI  27
6HR MIN TEMP:  32; 6HR MAX TEMP:  33;

MONROE         CLOUDY    34  25  69 NW8G18    30.17R WCI  27
JANESVILLE     CLOUDY    37  28  70 N7        30.17R WCI  32
$$

WIZ051-052-058>065-066-070>072-021900-
SOUTHEAST WISCONSIN

CITY           SKY/WX    TMP DP  RH WIND       PRES   REMARKS
MILWAUKEE      CLOUDY    36  22  56 NW12      30.16S WCI  28
6HR MIN TEMP:  35; 6HR MAX TEMP:  37;

WAUKESHA       CLOUDY    32  23  69 NW10      30.16S WCI  24
MILWAUKEE/TIMM CLOUDY    36  19  51 NW9       30.16F WCI  29
RACINE         CLOUDY    36  23  59 NW8       30.18R WCI  30
6HR MIN TEMP:  35; 6HR MAX TEMP:  36;

BURLINGTON     CLOUDY    34  25  69 NW12G18   30.17R WCI  25
6HR MIN TEMP:  34; 6HR MAX TEMP:  35;

KENOSHA        CLOUDY    36  24  62 NW12      30.17R WCI  28
6HR MIN TEMP:  35; 6HR MAX TEMP:  37; 6HR PCP: TRACE;

FOND DU LAC    CLOUDY    33  22  63 W13       30.16R WCI  24
6HR MIN TEMP:  32; 6HR MAX TEMP:  34;

SHEBOYGAN      CLOUDY    34  24  67 NW10      30.15R WCI  26
6HR MIN TEMP:  33; 6HR MAX TEMP:  34;

WEST BEND      CLOUDY    32  27  80 NW9       30.15S WCI  24
JUNEAU         CLOUDY    32  22  68 NW8       30.18R WCI  25
6HR MIN TEMP:  32; 6HR MAX TEMP:  32;

$$

LSZ147-162-021900-
LAKE SUPERIOR

STATION/POSITION TIME  TEMP    WIND        PRES    WAVE
                       AIR SEA DIR/SP/G            HT/PER
                 (UTC) (F)     (DEG/KT/KT) (MB)    (FT/S)
DEVILS ISLAND    1800   32     270/ 13/ 16 1022.6R
PORT WING        1740   31     290/  7/ 12 1022.7S
SAXON HARBOR     1740   32     260/  5/  7 1021.7S
$$

LMZ867-665-643>646-021900-
LAKE MICHIGAN

STATION/POSITION TIME  TEMP    WIND        PRES    WAVE
                       AIR SEA DIR/SP/G            HT/PER
                 (UTC) (F)     (DEG/KT/KT) (MB)    (FT/S)
CHAMBERS ISLAND  1730   36     290/  6/  C1F1C2F2C3F3C4F4C5F5C6F6C7F7C8M1C9M2Ca!



USA.gov is the U.S. government's official web portal to all federal, state and local government web resources and services.